Wind_Speed
43 42 42 41 43 45 45 44 43 39 27 25 26 28 28 26 24 24 24 24 24 23 23 22 22 21 20 19 18 18 17 16 15 14 13 13 13 13 15 17 18 20 22
40 39 39 40 42 44 46 45 41 31 21 21 23 25 24 23 24 23 23 23 23 23 23 23 23 22 21 20 19 19 18 18 17 15 15 14 14 13 15 16 18 20 22
35 37 39 40 42 42 42 40 37 31 27 24 21 22 23 22 23 23 22 22 22 23 23 23 23 23 22 21 21 20 20 20 19 17 16 15 15 15 17 17 18 20 22
34 36 38 40 41 42 41 40 36 31 29 26 22 21 21 22 22 21 21 22 23 23 23 24 24 24 24 24 23 23 23 22 22 20 18 17 16 16 19 20 19 20 21
34 36 39 40 42 43 43 41 37 33 30 28 26 24 23 23 24 24 23 23 23 24 25 26 26 27 27 27 27 26 25 24 24 23 21 20 18 17 17 20 21 21 21
36 38 41 43 44 45 45 43 41 39 36 34 32 31 30 30 30 30 29 27 26 27 27 27 28 29 30 31 30 29 28 27 26 25 24 22 21 20 18 19 22 22 22
35 38 42 44 47 48 48 47 46 44 43 42 40 39 38 37 36 36 36 35 33 31 31 30 31 31 33 34 34 32 31 30 29 27 26 25 23 22 21 21 21 22 23
39 43 46 48 50 50 51 50 50 49 48 47 47 46 46 45 43 43 42 42 41 39 37 35 35 35 35 36 36 36 34 33 32 31 29 28 26 25 24 23 22 21 22
45 48 51 53 54 55 55 55 54 53 52 52 52 52 52 51 50 49 48 48 48 47 45 43 42 40 40 39 40 39 39 37 36 34 33 31 29 27 26 25 23 22 21
49 52 55 57 59 61 61 61 61 59 58 57 56 56 57 57 56 55 54 54 53 53 52 51 50 48 46 44 43 43 42 41 39 38 36 34 32 30 29 27 26 23 21
52 54 57 60 62 65 68 69 69 68 67 65 63 62 61 61 61 61 60 59 58 58 58 57 56 55 54 51 50 47 45 44 43 42 40 38 35 33 31 29 28 25 23
55 57 60 62 65 68 70 72 72 71 69 66 63 60 58 57 58 60 62 64 63 63 62 62 62 61 60 59 57 54 51 49 47 45 43 41 39 36 34 32 30 27 24
58 60 63 65 67 68 68 67 65 64 61 58 55 52 49 48 48 50 54 59 63 66 67 67 66 65 65 63 61 59 56 54 51 49 46 44 41 38 36 34 32 29 26
61 64 66 65 63 61 59 58 57 56 55 53 51 48 45 43 41 41 42 46 52 59 64 68 70 70 70 68 65 63 60 57 55 52 49 47 44 41 39 36 34 32 29
63 63 61 58 56 55 54 54 54 54 53 53 51 49 47 44 41 39 39 39 41 45 52 59 65 69 71 72 70 67 64 60 57 55 52 49 46 43 40 38 36 33 30
60 58 56 54 53 53 53 53 53 53 53 53 52 51 50 47 45 43 42 41 40 39 40 44 50 58 64 69 72 71 68 64 60 57 54 51 48 45 42 40 37 35 31
57 54 53 52 52 52 53 54 54 54 54 54 53 52 52 50 48 47 45 42 41 39 38 37 39 43 50 58 64 69 70 67 63 59 56 52 49 46 44 42 39 36 33
53 51 51 52 53 54 56 56 57 57 56 55 55 54 53 51 50 49 48 46 44 42 41 39 37 36 38 42 49 57 63 65 65 62 58 54 51 48 45 43 40 37 34
51 51 53 55 56 58 59 59 59 58 57 55 54 53 52 50 49 48 46 45 44 43 42 40 38 36 34 34 37 42 49 56 60 62 61 57 52 49 46 44 41 38 34
51 52 55 57 58 60 61 61 59 58 56 54 52 51 51 49 47 45 44 42 42 41 41 39 38 36 34 33 33 35 39 45 52 57 59 58 54 50 47 44 41 38 35
51 53 56 58 60 61 61 60 58 56 54 52 49 48 48 46 45 43 41 39 39 38 38 38 37 36 35 34 33 33 34 38 44 50 55 57 55 51 48 44 42 39 36
52 55 57 59 60 61 60 58 56 52 48 45 43 42 41 40 40 38 37 37 36 35 35 35 35 35 35 34 33 33 32 34 38 44 49 53 54 51 48 45 43 40 37
53 56 59 60 60 59 58 56 52 46 42 38 35 33 31 31 32 32 32 32 32 32 32 32 31 32 32 32 32 32 32 33 36 41 46 50 51 49 47 44 42 39 37
54 57 59 60 58 56 55 53 48 43 38 32 27 24 22 21 22 24 26 26 26 27 28 29 29 28 28 28 29 29 31 31 34 40 45 49 50 47 45 43 40 38 35
54 57 59 59 57 55 53 50 45 40 34 27 21 17 14 13 13 15 17 19 20 22 23 24 26 26 26 26 26 26 28 31 33 40 46 50 51 47 45 42 40 38 35
54 56 58 58 56 54 52 49 46 40 33 26 20 14 8 5 6 8 11 13 15 17 18 20 22 23 24 24 25 25 27 30 33 39 47 51 50 48 45 43 40 37 33
Wind_Direction
284 289 293 296 298 302 305 306 307 300 274 253 249 244 247 253 263 270 276 280 280 280 278 276 272 266 260 255 252 250 248 246 246 252 260 267 274 282 286 287 286 282 276
285 289 294 298 304 308 310 312 315 309 291 276 265 259 257 260 267 271 275 274 274 273 272 270 267 261 255 249 247 246 246 245 243 249 255 263 273 282 288 292 291 288 282
287 292 296 299 303 306 310 314 311 312 309 301 286 275 269 271 275 273 272 270 270 269 266 265 261 256 251 247 246 247 247 248 247 246 250 258 271 285 292 295 295 293 287
286 289 292 295 299 304 309 311 312 311 309 307 297 288 280 275 275 273 271 273 272 269 264 261 257 252 249 248 248 250 251 252 252 250 250 255 265 279 291 297 299 297 291
282 286 289 292 296 301 305 307 308 308 307 304 298 292 287 280 280 277 274 273 271 268 263 260 257 252 249 249 250 252 254 255 256 255 255 258 264 273 284 294 299 299 295
281 285 289 292 296 300 303 305 306 306 304 302 295 289 286 283 279 278 276 274 270 266 261 259 257 254 250 249 251 253 254 255 257 257 258 262 267 273 281 288 295 298 297
291 292 294 297 300 302 304 304 304 303 300 298 294 289 285 281 278 276 274 272 269 266 261 258 256 255 254 252 252 253 254 255 256 257 258 262 268 274 279 285 290 294 296
300 299 299 300 301 302 302 301 300 298 296 293 290 287 284 281 277 274 272 269 267 265 261 258 255 254 253 253 253 253 254 255 255 256 257 261 266 272 276 282 286 290 292
303 303 303 302 302 301 300 298 297 294 291 288 285 283 280 278 276 273 270 267 265 263 261 258 255 253 251 252 253 253 252 253 254 254 256 259 264 269 274 279 282 285 289
306 306 305 305 304 303 301 300 297 295 291 287 284 281 278 275 273 270 268 265 263 261 259 258 255 253 252 249 250 251 251 251 252 252 254 257 261 266 270 275 278 281 285
309 308 307 307 306 305 303 302 300 298 295 292 288 284 279 274 271 268 265 263 261 259 257 256 255 253 252 251 249 249 249 250 250 251 252 255 258 262 266 270 273 276 280
312 310 309 307 306 304 303 302 301 300 299 297 295 291 286 279 273 268 263 260 258 256 255 254 253 252 251 250 249 249 248 249 249 250 250 252 255 258 262 265 267 270 275
313 311 309 307 306 305 304 303 302 301 301 300 298 295 291 285 278 271 263 258 255 254 252 251 250 250 250 250 250 248 248 248 248 248 249 250 252 254 257 260 262 264 268
314 312 310 308 307 306 305 304 302 301 300 299 297 295 292 289 285 280 272 263 256 253 251 250 249 248 248 248 248 247 247 246 246 246 246 247 249 251 253 255 257 259 263
314 312 310 309 308 307 306 304 302 300 298 296 294 292 289 286 283 280 277 274 269 261 255 251 248 247 246 246 246 245 245 244 243 243 243 244 245 247 249 251 252 255 258
315 314 313 311 310 308 306 304 301 298 296 293 291 288 285 282 280 277 274 272 270 268 264 258 252 248 246 245 244 243 242 242 241 240 240 241 242 243 245 246 248 250 253
318 316 315 314 312 309 307 304 301 298 295 291 289 286 283 280 278 275 273 270 268 265 264 263 259 254 249 246 244 243 241 240 238 238 237 237 237 239 241 242 244 246 249
320 319 317 315 313 311 308 305 301 297 293 290 286 284 281 278 276 273 270 268 266 263 262 260 259 258 254 250 246 243 240 239 237 235 234 234 234 235 236 238 241 243 244
324 322 320 318 316 313 310 307 303 298 294 289 285 282 279 276 274 271 268 265 263 260 259 257 256 255 253 252 249 245 240 236 234 232 231 231 231 231 233 235 238 238 239
326 325 323 321 318 316 313 310 306 301 296 290 285 281 278 274 271 268 265 262 260 257 254 252 251 250 250 251 251 248 241 235 231 228 227 227 227 227 230 232 233 234 236
329 328 327 325 323 321 318 316 312 306 300 294 287 281 276 272 268 264 262 259 256 254 251 249 247 246 246 249 250 247 240 234 229 224 222 222 222 223 226 228 229 231 233
333 332 332 330 328 326 324 322 318 312 306 300 293 285 277 270 265 260 257 255 253 250 248 245 244 244 245 247 248 246 240 232 226 220 217 215 215 217 221 224 226 229 229
337 337 337 336 335 333 331 330 327 322 316 308 300 291 280 270 262 256 251 249 248 245 243 242 242 242 242 243 244 242 238 230 223 216 211 208 207 210 216 220 222 223 224
342 342 343 343 342 342 342 340 338 334 329 321 312 301 286 271 259 251 246 243 242 240 238 237 238 238 238 237 238 237 230 222 217 209 203 200 199 203 208 213 216 217 217
346 347 349 350 350 350 351 352 351 349 344 338 330 317 299 277 257 246 239 236 234 233 233 233 233 232 231 232 231 228 222 215 210 204 197 192 193 196 202 206 210 210 210
349 351 353 355 356 356 357 359 359 359 359 358 355 350 338 306 257 240 231 225 225 225 225 226 227 226 227 226 224 222 217 210 205 200 193 186 187 190 195 200 202 202 204
Height
5859 5857 5854 5850 5846 5839 5831 5823 5818 5811 5807 5809 5811 5812 5815 5818 5820 5820 5820 5820 5820 5819 5818 5818 5818 5817 5817 5818 5818 5819 5819 5821 5822 5823 5823 5823 5822 5821 5820 5819 5818 5817 5816
5853 5851 5848 5843 5838 5833 5828 5824 5817 5808 5804 5805 5806 5809 5810 5811 5813 5813 5813 5813 5813 5813 5812 5812 5812 5812 5812 5812 5813 5814 5814 5815 5817 5818 5818 5818 5818 5817 5816 5814 5812 5811 5809
5847 5845 5842 5837 5834 5830 5826 5822 5817 5809 5805 5805 5804 5804 5805 5805 5806 5806 5806 5806 5806 5806 5806 5805 5806 5806 5806 5807 5808 5809 5809 5810 5811 5813 5813 5814 5813 5812 5810 5809 5807 5805 5803
5842 5840 5836 5833 5828 5824 5820 5816 5812 5808 5805 5802 5800 5799 5799 5799 5799 5799 5799 5799 5798 5798 5798 5798 5799 5799 5800 5800 5802 5803 5804 5804 5805 5806 5807 5808 5808 5807 5805 5803 5802 5800 5797
5837 5833 5830 5826 5821 5817 5813 5809 5805 5803 5800 5797 5795 5793 5792 5792 5792 5791 5791 5791 5791 5791 5790 5790 5791 5792 5792 5793 5794 5795 5797 5797 5798 5799 5800 5801 5802 5802 5801 5798 5796 5794 5792
5829 5825 5821 5817 5812 5808 5804 5800 5797 5794 5791 5789 5787 5786 5785 5784 5783 5783 5783 5783 5783 5783 5783 5783 5783 5783 5784 5785 5786 5787 5789 5790 5791 5792 5793 5794 5794 5795 5795 5793 5791 5788 5786
5820 5815 5811 5807 5802 5797 5793 5790 5787 5784 5782 5780 5778 5776 5775 5774 5774 5773 5772 5772 5772 5773 5774 5774 5774 5774 5775 5776 5777 5778 5780 5781 5783 5784 5786 5786 5787 5787 5788 5787 5785 5783 5780
5811 5805 5800 5795 5790 5786 5782 5779 5776 5773 5770 5768 5766 5764 5762 5762 5761 5761 5760 5760 5760 5761 5762 5763 5764 5764 5765 5766 5767 5768 5770 5772 5774 5776 5777 5779 5779 5780 5780 5780 5779 5778 5775
5799 5793 5787 5781 5776 5771 5768 5764 5761 5759 5756 5753 5750 5748 5746 5746 5745 5745 5746 5746 5746 5747 5747 5749 5750 5752 5753 5755 5756 5758 5760 5762 5764 5766 5768 5770 5771 5772 5773 5773 5773 5772 5770
5788 5781 5774 5767 5760 5754 5748 5744 5741 5738 5736 5734 5732 5729 5727 5726 5726 5726 5727 5728 5729 5730 5731 5733 5735 5737 5739 5741 5744 5746 5748 5750 5753 5756 5758 5761 5763 5764 5765 5765 5765 5765 5765
5778 5771 5763 5755 5747 5738 5729 5722 5716 5713 5710 5708 5707 5706 5704 5703 5703 5703 5704 5706 5708 5710 5713 5715 5717 5720 5723 5726 5729 5732 5735 5738 5741 5744 5748 5751 5753 5755 5756 5757 5758 5758 5758
5767 5759 5750 5741 5732 5723 5714 5704 5696 5689 5685 5681 5679 5677 5676 5676 5677 5678 5679 5681 5684 5687 5691 5694 5697 5701 5704 5708 5713 5716 5720 5724 5728 5732 5736 5740 5743 5746 5748 5749 5750 5751 5751
5755 5746 5737 5727 5718 5708 5698 5689 5681 5673 5666 5661 5658 5655 5652 5651 5651 5651 5653 5655 5658 5662 5666 5671 5675 5679 5684 5688 5694 5699 5704 5709 5714 5718 5723 5728 5732 5735 5738 5741 5742 5743 5744
5742 5732 5722 5712 5703 5693 5684 5675 5667 5659 5653 5647 5643 5639 5636 5633 5632 5631 5630 5632 5633 5637 5640 5645 5650 5656 5661 5667 5673 5679 5686 5692 5698 5704 5710 5715 5720 5724 5728 5731 5733 5735 5737
5728 5718 5708 5698 5689 5680 5671 5663 5655 5647 5640 5634 5629 5625 5622 5619 5617 5616 5615 5614 5615 5616 5618 5621 5626 5631 5638 5644 5651 5658 5666 5674 5681 5688 5695 5701 5707 5712 5717 5721 5724 5727 5729
5714 5704 5694 5684 5675 5666 5658 5649 5641 5633 5625 5619 5613 5609 5605 5603 5601 5600 5600 5599 5600 5600 5601 5602 5605 5609 5615 5621 5628 5636 5645 5654 5663 5671 5680 5687 5694 5700 5705 5710 5714 5718 5720
5700 5690 5680 5671 5661 5652 5643 5634 5625 5617 5609 5602 5596 5592 5588 5585 5584 5583 5583 5583 5584 5585 5586 5588 5590 5592 5595 5599 5606 5614 5623 5634 5644 5654 5663 5672 5680 5687 5693 5699 5704 5708 5712
5687 5677 5667 5658 5648 5637 5627 5617 5608 5599 5590 5583 5578 5573 5569 5567 5565 5565 5565 5566 5568 5570 5572 5574 5576 5579 5581 5583 5587 5594 5603 5613 5625 5636 5647 5657 5666 5674 5681 5688 5693 5698 5703
5675 5665 5655 5644 5633 5621 5609 5598 5587 5577 5569 5562 5556 5552 5549 5547 5546 5546 5547 5549 5551 5554 5556 5560 5563 5566 5568 5571 5574 5578 5585 5594 5605 5617 5630 5641 5652 5661 5669 5676 5683 5688 5693
5665 5654 5643 5630 5617 5604 5590 5577 5565 5554 5546 5539 5534 5531 5528 5527 5527 5528 5530 5532 5535 5538 5541 5545 5549 5552 5556 5559 5562 5566 5572 5579 5589 5600 5613 5626 5637 5647 5656 5665 5672 5678 5684
5656 5644 5631 5617 5602 5587 5572 5558 5544 5532 5523 5516 5511 5508 5507 5506 5508 5511 5513 5516 5519 5523 5527 5531 5535 5540 5544 5548 5551 5555 5559 5566 5573 5584 5596 5610 5623 5634 5644 5653 5661 5668 5674
5647 5634 5620 5605 5588 5571 5555 5540 5525 5513 5503 5495 5490 5487 5486 5487 5490 5494 5498 5502 5506 5510 5514 5519 5523 5527 5532 5536 5540 5544 5548 5554 5562 5571 5583 5595 5609 5621 5632 5642 5650 5658 5665
5638 5624 5609 5593 5576 5558 5541 5525 5510 5497 5487 5480 5474 5471 5470 5472 5475 5479 5484 5489 5493 5498 5502 5507 5512 5516 5521 5525 5529 5534 5538 5544 5551 5560 5571 5584 5597 5610 5621 5631 5640 5649 5656
5631 5617 5601 5584 5567 5549 5532 5514 5499 5487 5477 5469 5464 5461 5460 5462 5464 5468 5473 5478 5483 5488 5492 5497 5502 5506 5511 5515 5520 5524 5529 5535 5542 5551 5561 5573 5587 5600 5611 5622 5631 5640 5648
5625 5610 5594 5577 5559 5543 5526 5510 5495 5482 5472 5464 5459 5456 5455 5456 5458 5462 5466 5471 5475 5480 5485 5489 5494 5498 5503 5507 5512 5516 5521 5526 5532 5541 5552 5564 5578 5590 5602 5614 5624 5632 5641
5621 5606 5590 5574 5557 5541 5525 5510 5495 5483 5472 5464 5459 5456 5455 5455 5457 5460 5463 5467 5471 5475 5479 5483 5488 5491 5496 5500 5504 5508 5513 5519 5525 5534 5544 5556 5570 5583 5596 5607 5617 5626 5634